owner,sensor,date,latitude,longitude,vertical_datum,mass_concentration_of_oxygen_in_sea_water,qcFlag 
SCCF RECON,ioos:station:SCCF:51:1,2011-07-01T00:00:00Z,26.5545,-82.1715,1.38,7.43,1111122 
SCCF RECON,ioos:station:SCCF:51:1,2011-07-01T01:00:00Z,26.5545,-82.1715,1.383,6.93,1111122 
SCCF RECON,ioos:station:SCCF:51:1,2011-07-01T02:00:00Z,26.5545,-82.1715,1.455,7.14,1111122 
SCCF RECON,ioos:station:SCCF:51:1,2011-07-01T03:00:00Z,26.5545,-82.1715,1.579,6.7,1111122 
SCCF RECON,ioos:station:SCCF:51:1,2011-07-01T04:00:00Z,26.5545,-82.1715,1.7,6.25,1111122 
SCCF RECON,ioos:station:SCCF:51:1,2011-07-01T05:00:00Z,26.5545,-82.1715,1.806,6.21,1111122 
SCCF RECON,ioos:station:SCCF:51:1,2011-07-01T06:00:00Z,26.5545,-82.1715,1.864,5.89,1111122 
SCCF RECON,ioos:station:SCCF:51:1,2011-07-01T07:00:00Z,26.5545,-82.1715,1.89,5.73,1111122 
SCCF RECON,ioos:station:SCCF:51:1,2011-07-01T08:00:00Z,26.5545,-82.1715,1.85,5.61,1111122 
SCCF RECON,ioos:station:SCCF:51:1,2011-07-01T09:00:00Z,26.5545,-82.1715,1.799,5.54,1111122 
SCCF RECON,ioos:station:SCCF:51:1,2011-07-01T10:00:00Z,26.5545,-82.1715,1.772,5.77,1111122 
SCCF RECON,ioos:station:SCCF:51:1,2011-07-01T11:00:00Z,26.5545,-82.1715,1.799,5.75,1111122 
SCCF RECON,ioos:station:SCCF:51:1,2011-07-01T12:00:00Z,26.5545,-82.1715,1.81,5.57,1111122 
SCCF RECON,ioos:station:SCCF:51:1,2011-07-01T13:00:00Z,26.5545,-82.1715,1.871,5.56,1111122 
SCCF RECON,ioos:station:SCCF:51:1,2011-07-01T14:00:00Z,26.5545,-82.1715,1.954,5.61,1111122 
SCCF RECON,ioos:station:SCCF:51:1,2011-07-01T15:00:00Z,26.5545,-82.1715,2.059,5.79,1111122 
SCCF RECON,ioos:station:SCCF:51:1,2011-07-01T16:00:00Z,26.5545,-82.1715,2.156,6.08,1111122 
SCCF RECON,ioos:station:SCCF:51:1,2011-07-01T17:00:00Z,26.5545,-82.1715,2.208,6.27,1111122 
SCCF RECON,ioos:station:SCCF:51:1,2011-07-01T18:00:00Z,26.5545,-82.1715,2.171,6.16,1111122 
SCCF RECON,ioos:station:SCCF:51:1,2011-07-01T19:00:00Z,26.5545,-82.1715,2.081,6.65,1111122 
SCCF RECON,ioos:station:SCCF:51:1,2011-07-01T20:00:00Z,26.5545,-82.1715,1.962,7.17,1111122 
SCCF RECON,ioos:station:SCCF:51:1,2011-07-01T21:00:00Z,26.5545,-82.1715,1.822,7.56,1111122 
SCCF RECON,ioos:station:SCCF:51:1,2011-07-01T22:00:00Z,26.5545,-82.1715,1.67,7.76,1111122 
SCCF RECON,ioos:station:SCCF:51:1,2011-07-01T23:00:00Z,26.5545,-82.1715,1.55,8.42,1111122 
SCCF RECON,ioos:station:SCCF:51:1,2011-07-02T00:00:00Z,26.5545,-82.1715,1.44,8.63,1111122 
SCCF RECON,ioos:station:SCCF:51:1,2011-07-02T01:00:00Z,26.5545,-82.1715,1.381,8.23,1111122 
SCCF RECON,ioos:station:SCCF:51:1,2011-07-02T02:00:00Z,26.5545,-82.1715,1.397,8.72,1111122 
SCCF RECON,ioos:station:SCCF:51:1,2011-07-02T03:00:00Z,26.5545,-82.1715,1.507,8.18,1111122 
SCCF RECON,ioos:station:SCCF:51:1,2011-07-02T04:00:00Z,26.5545,-82.1715,1.64,6.66,1111122 
SCCF RECON,ioos:station:SCCF:51:1,2011-07-02T05:00:00Z,26.5545,-82.1715,1.78,6.42,1111122 
SCCF RECON,ioos:station:SCCF:51:1,2011-07-02T06:00:00Z,26.5545,-82.1715,1.872,6.18,1111122 
SCCF RECON,ioos:station:SCCF:51:1,2011-07-02T07:00:00Z,26.5545,-82.1715,1.919,6.18,1111122 
SCCF RECON,ioos:station:SCCF:51:1,2011-07-02T08:00:00Z,26.5545,-82.1715,1.894,6.02,1111122 
SCCF RECON,ioos:station:SCCF:51:1,2011-07-02T09:00:00Z,26.5545,-82.1715,1.845,6.37,1111122 
SCCF RECON,ioos:station:SCCF:51:1,2011-07-02T10:00:00Z,26.5545,-82.1715,1.82,6.32,1111122 
SCCF RECON,ioos:station:SCCF:51:1,2011-07-02T11:00:00Z,26.5545,-82.1715,1.798,6.35,1111122 
SCCF RECON,ioos:station:SCCF:51:1,2011-07-02T12:00:00Z,26.5545,-82.1715,1.82,6.38,1111122 
SCCF RECON,ioos:station:SCCF:51:1,2011-07-02T13:00:00Z,26.5545,-82.1715,1.833,6.37,1111122 
SCCF RECON,ioos:station:SCCF:51:1,2011-07-02T14:00:00Z,26.5545,-82.1715,1.9,5.97,1111122 
SCCF RECON,ioos:station:SCCF:51:1,2011-07-02T15:00:00Z,26.5545,-82.1715,1.965,5.69,1111122 
SCCF RECON,ioos:station:SCCF:51:1,2011-07-02T16:00:00Z,26.5545,-82.1715,2.06,5.69,1111122 
SCCF RECON,ioos:station:SCCF:51:1,2011-07-02T17:00:00Z,26.5545,-82.1715,2.141,6.03,1111122 
SCCF RECON,ioos:station:SCCF:51:1,2011-07-02T18:00:00Z,26.5545,-82.1715,2.155,6.03,1111122 
SCCF RECON,ioos:station:SCCF:51:1,2011-07-02T19:00:00Z,26.5545,-82.1715,2.111,6.38,1111122 
SCCF RECON,ioos:station:SCCF:51:1,2011-07-02T20:00:00Z,26.5545,-82.1715,2.018,6.18,1111122 
SCCF RECON,ioos:station:SCCF:51:1,2011-07-02T21:00:00Z,26.5545,-82.1715,1.887,6.62,1111122 
SCCF RECON,ioos:station:SCCF:51:1,2011-07-02T22:00:00Z,26.5545,-82.1715,1.741,7.44,1111122 
SCCF RECON,ioos:station:SCCF:51:1,2011-07-02T23:00:00Z,26.5545,-82.1715,1.593,7.42,1111122 
SCCF RECON,ioos:station:SCCF:51:1,2011-07-03T00:00:00Z,26.5545,-82.1715,1.468,7.25,1111122 
SCCF RECON,ioos:station:SCCF:51:1,2011-07-03T01:00:00Z,26.5545,-82.1715,1.377,7.17,1111122 
SCCF RECON,ioos:station:SCCF:51:1,2011-07-03T02:00:00Z,26.5545,-82.1715,1.346,7.12,1111122 
SCCF RECON,ioos:station:SCCF:51:1,2011-07-03T03:00:00Z,26.5545,-82.1715,1.43,7.04,1111122 
SCCF RECON,ioos:station:SCCF:51:1,2011-07-03T04:00:00Z,26.5545,-82.1715,1.564,6.73,1111122 
SCCF RECON,ioos:station:SCCF:51:1,2011-07-03T05:00:00Z,26.5545,-82.1715,1.71,6.07,1111122 
SCCF RECON,ioos:station:SCCF:51:1,2011-07-03T06:00:00Z,26.5545,-82.1715,1.81,5.95,1111122 
SCCF RECON,ioos:station:SCCF:51:1,2011-07-03T07:00:00Z,26.5545,-82.1715,1.891,5.91,1111122 
SCCF RECON,ioos:station:SCCF:51:1,2011-07-03T08:00:00Z,26.5545,-82.1715,1.923,5.74,1111122 
SCCF RECON,ioos:station:SCCF:51:1,2011-07-03T09:00:00Z,26.5545,-82.1715,1.9,5.64,1111122 
SCCF RECON,ioos:station:SCCF:51:1,2011-07-03T10:00:00Z,26.5545,-82.1715,1.85,5.99,1111122 
SCCF RECON,ioos:station:SCCF:51:1,2011-07-03T11:00:00Z,26.5545,-82.1715,1.801,5.72,1111122 
SCCF RECON,ioos:station:SCCF:51:1,2011-07-03T12:00:00Z,26.5545,-82.1715,1.777,5.53,1111122 
SCCF RECON,ioos:station:SCCF:51:1,2011-07-03T13:00:00Z,26.5545,-82.1715,1.781,5.63,1111122 
SCCF RECON,ioos:station:SCCF:51:1,2011-07-03T14:00:00Z,26.5545,-82.1715,1.824,5.96,1111122 
SCCF RECON,ioos:station:SCCF:51:1,2011-07-03T15:00:00Z,26.5545,-82.1715,1.903,6.25,1111122 
SCCF RECON,ioos:station:SCCF:51:1,2011-07-03T16:00:00Z,26.5545,-82.1715,2.014,6.37,1111122 
SCCF RECON,ioos:station:SCCF:51:1,2011-07-03T17:00:00Z,26.5545,-82.1715,2.12,6.65,1111122 
SCCF RECON,ioos:station:SCCF:51:1,2011-07-03T18:00:00Z,26.5545,-82.1715,2.196,6.79,1111122 
SCCF RECON,ioos:station:SCCF:51:1,2011-07-03T19:00:00Z,26.5545,-82.1715,2.201,6.9,1111122 
SCCF RECON,ioos:station:SCCF:51:1,2011-07-03T20:00:00Z,26.5545,-82.1715,2.127,6.92,1111122 
SCCF RECON,ioos:station:SCCF:51:1,2011-07-03T21:00:00Z,26.5545,-82.1715,2.021,7.41,1111122 
SCCF RECON,ioos:station:SCCF:51:1,2011-07-03T22:00:00Z,26.5545,-82.1715,1.904,7.73,1111122 
SCCF RECON,ioos:station:SCCF:51:1,2011-07-03T23:00:00Z,26.5545,-82.1715,1.75,8.09,1111122 
SCCF RECON,ioos:station:SCCF:51:1,2011-07-04T00:00:00Z,26.5545,-82.1715,1.62,8.0,1111122 
SCCF RECON,ioos:station:SCCF:51:1,2011-07-04T01:00:00Z,26.5545,-82.1715,1.499,8.28,1111122 
SCCF RECON,ioos:station:SCCF:51:1,2011-07-04T02:00:00Z,26.5545,-82.1715,1.41,8.31,1111122 
SCCF RECON,ioos:station:SCCF:51:1,2011-07-04T03:00:00Z,26.5545,-82.1715,1.412,8.06,1111122 
SCCF RECON,ioos:station:SCCF:51:1,2011-07-04T04:00:00Z,26.5545,-82.1715,1.517,7.86,1111122 
SCCF RECON,ioos:station:SCCF:51:1,2011-07-04T05:00:00Z,26.5545,-82.1715,1.648,6.55,1111122 
SCCF RECON,ioos:station:SCCF:51:1,2011-07-04T06:00:00Z,26.5545,-82.1715,1.79,6.53,1111122 
SCCF RECON,ioos:station:SCCF:51:1,2011-07-04T07:00:00Z,26.5545,-82.1715,1.9,6.2,1111122 
SCCF RECON,ioos:station:SCCF:51:1,2011-07-04T08:00:00Z,26.5545,-82.1715,1.96,6.08,1111122 
SCCF RECON,ioos:station:SCCF:51:1,2011-07-04T09:00:00Z,26.5545,-82.1715,1.97,6.02,1111122 
SCCF RECON,ioos:station:SCCF:51:1,2011-07-04T10:00:00Z,26.5545,-82.1715,1.917,6.01,1111122 
SCCF RECON,ioos:station:SCCF:51:1,2011-07-04T11:00:00Z,26.5545,-82.1715,1.86,6.25,1111122 
SCCF RECON,ioos:station:SCCF:51:1,2011-07-04T12:00:00Z,26.5545,-82.1715,1.799,6.57,1111122 
SCCF RECON,ioos:station:SCCF:51:1,2011-07-04T13:00:00Z,26.5545,-82.1715,1.754,6.82,1111122 
SCCF RECON,ioos:station:SCCF:51:1,2011-07-04T14:00:00Z,26.5545,-82.1715,1.78,6.96,1111122 
SCCF RECON,ioos:station:SCCF:51:1,2011-07-04T15:00:00Z,26.5545,-82.1715,1.838,6.61,1111122 
SCCF RECON,ioos:station:SCCF:51:1,2011-07-04T16:00:00Z,26.5545,-82.1715,1.916,6.64,1111122 
SCCF RECON,ioos:station:SCCF:51:1,2011-07-04T17:00:00Z,26.5545,-82.1715,2.02,6.62,1111122 
SCCF RECON,ioos:station:SCCF:51:1,2011-07-04T18:00:00Z,26.5545,-82.1715,2.118,6.87,1111122 
SCCF RECON,ioos:station:SCCF:51:1,2011-07-04T19:00:00Z,26.5545,-82.1715,2.158,7.05,1111122 
SCCF RECON,ioos:station:SCCF:51:1,2011-07-04T20:00:00Z,26.5545,-82.1715,2.112,7.11,1111122 
SCCF RECON,ioos:station:SCCF:51:1,2011-07-04T21:00:00Z,26.5545,-82.1715,2.071,7.4,1111122 
SCCF RECON,ioos:station:SCCF:51:1,2011-07-04T22:00:00Z,26.5545,-82.1715,1.969,7.59,1111122 
SCCF RECON,ioos:station:SCCF:51:1,2011-07-04T23:00:00Z,26.5545,-82.1715,1.841,8.16,1111122 
SCCF RECON,ioos:station:SCCF:51:1,2011-07-05T00:00:00Z,26.5545,-82.1715,1.71,8.08,1111122 
SCCF RECON,ioos:station:SCCF:51:1,2011-07-05T01:00:00Z,26.5545,-82.1715,1.587,8.23,1111122 
SCCF RECON,ioos:station:SCCF:51:1,2011-07-05T02:00:00Z,26.5545,-82.1715,1.49,7.99,1111122 
SCCF RECON,ioos:station:SCCF:51:1,2011-07-05T03:00:00Z,26.5545,-82.1715,1.453,7.92,1111122 
SCCF RECON,ioos:station:SCCF:51:1,2011-07-05T04:00:00Z,26.5545,-82.1715,1.503,7.57,1111122 
SCCF RECON,ioos:station:SCCF:51:1,2011-07-05T05:00:00Z,26.5545,-82.1715,1.61,7.49,1111122 
SCCF RECON,ioos:station:SCCF:51:1,2011-07-05T06:00:00Z,26.5545,-82.1715,1.739,6.5,1111122 
SCCF RECON,ioos:station:SCCF:51:1,2011-07-05T07:00:00Z,26.5545,-82.1715,1.87,6.31,1111122 
SCCF RECON,ioos:station:SCCF:51:1,2011-07-05T08:00:00Z,26.5545,-82.1715,1.954,6.18,1111122 
SCCF RECON,ioos:station:SCCF:51:1,2011-07-05T09:00:00Z,26.5545,-82.1715,1.981,6.11,1111122 
SCCF RECON,ioos:station:SCCF:51:1,2011-07-05T10:00:00Z,26.5545,-82.1715,1.954,5.96,1111122 
SCCF RECON,ioos:station:SCCF:51:1,2011-07-05T11:00:00Z,26.5545,-82.1715,1.872,6.22,1111122 
SCCF RECON,ioos:station:SCCF:51:1,2011-07-05T12:00:00Z,26.5545,-82.1715,1.8,6.33,1111122 
SCCF RECON,ioos:station:SCCF:51:1,2011-07-05T13:00:00Z,26.5545,-82.1715,1.733,6.46,1111122 
SCCF RECON,ioos:station:SCCF:51:1,2011-07-05T14:00:00Z,26.5545,-82.1715,1.695,6.65,1111122 
SCCF RECON,ioos:station:SCCF:51:1,2011-07-05T15:00:00Z,26.5545,-82.1715,1.713,6.98,1111122 
SCCF RECON,ioos:station:SCCF:51:1,2011-07-05T16:00:00Z,26.5545,-82.1715,1.784,6.85,1111122 
SCCF RECON,ioos:station:SCCF:51:1,2011-07-05T17:00:00Z,26.5545,-82.1715,1.879,6.61,1111122 
SCCF RECON,ioos:station:SCCF:51:1,2011-07-05T18:00:00Z,26.5545,-82.1715,1.985,6.82,1111122 
SCCF RECON,ioos:station:SCCF:51:1,2011-07-05T19:00:00Z,26.5545,-82.1715,2.063,6.88,1111122 
SCCF RECON,ioos:station:SCCF:51:1,2011-07-05T20:00:00Z,26.5545,-82.1715,2.099,7.07,1111122 
SCCF RECON,ioos:station:SCCF:51:1,2011-07-05T21:00:00Z,26.5545,-82.1715,2.078,7.06,1111122 
SCCF RECON,ioos:station:SCCF:51:1,2011-07-05T22:00:00Z,26.5545,-82.1715,2.028,7.25,1111122 
SCCF RECON,ioos:station:SCCF:51:1,2011-07-05T23:00:00Z,26.5545,-82.1715,1.958,7.51,1111122 
SCCF RECON,ioos:station:SCCF:51:1,2011-07-06T00:00:00Z,26.5545,-82.1715,1.854,7.76,1111122 
SCCF RECON,ioos:station:SCCF:51:1,2011-07-06T01:00:00Z,26.5545,-82.1715,1.738,8.02,1111122 
SCCF RECON,ioos:station:SCCF:51:1,2011-07-06T02:00:00Z,26.5545,-82.1715,1.631,7.84,1111122 
SCCF RECON,ioos:station:SCCF:51:1,2011-07-06T03:00:00Z,26.5545,-82.1715,1.556,7.27,1111122 
SCCF RECON,ioos:station:SCCF:51:1,2011-07-06T04:00:00Z,26.5545,-82.1715,1.541,7.17,1111122 
SCCF RECON,ioos:station:SCCF:51:1,2011-07-06T05:00:00Z,26.5545,-82.1715,1.597,7.02,1111122 
SCCF RECON,ioos:station:SCCF:51:1,2011-07-06T06:00:00Z,26.5545,-82.1715,1.704,7.09,1111122 
SCCF RECON,ioos:station:SCCF:51:1,2011-07-06T07:00:00Z,26.5545,-82.1715,1.83,6.27,1111122 
SCCF RECON,ioos:station:SCCF:51:1,2011-07-06T08:00:00Z,26.5545,-82.1715,1.942,5.99,1111122 
SCCF RECON,ioos:station:SCCF:51:1,2011-07-06T09:00:00Z,26.5545,-82.1715,2.02,6.07,1111122 
SCCF RECON,ioos:station:SCCF:51:1,2011-07-06T10:00:00Z,26.5545,-82.1715,2.035,5.74,1111122 
SCCF RECON,ioos:station:SCCF:51:1,2011-07-06T11:00:00Z,26.5545,-82.1715,1.98,5.8,1111122 
SCCF RECON,ioos:station:SCCF:51:1,2011-07-06T12:00:00Z,26.5545,-82.1715,1.911,6.01,1111122 
SCCF RECON,ioos:station:SCCF:51:1,2011-07-06T13:00:00Z,26.5545,-82.1715,1.825,5.93,1111122 
SCCF RECON,ioos:station:SCCF:51:1,2011-07-06T14:00:00Z,26.5545,-82.1715,1.762,6.04,1111122 
SCCF RECON,ioos:station:SCCF:51:1,2011-07-06T15:00:00Z,26.5545,-82.1715,1.717,6.44,1111122 
SCCF RECON,ioos:station:SCCF:51:1,2011-07-06T16:00:00Z,26.5545,-82.1715,1.718,6.6,1111122 
SCCF RECON,ioos:station:SCCF:51:1,2011-07-06T17:00:00Z,26.5545,-82.1715,1.758,6.56,1111122 
SCCF RECON,ioos:station:SCCF:51:1,2011-07-06T18:00:00Z,26.5545,-82.1715,1.819,6.94,1111122 
SCCF RECON,ioos:station:SCCF:51:1,2011-07-06T19:00:00Z,26.5545,-82.1715,1.921,6.41,1111122 
SCCF RECON,ioos:station:SCCF:51:1,2011-07-06T20:00:00Z,26.5545,-82.1715,1.995,6.27,1111122 
SCCF RECON,ioos:station:SCCF:51:1,2011-07-06T21:00:00Z,26.5545,-82.1715,2.03,6.35,1111122 
SCCF RECON,ioos:station:SCCF:51:1,2011-07-06T22:00:00Z,26.5545,-82.1715,1.965,6.17,1111122 
SCCF RECON,ioos:station:SCCF:51:1,2011-07-06T23:00:00Z,26.5545,-82.1715,1.9,6.27,1111122 
SCCF RECON,ioos:station:SCCF:51:1,2011-07-07T00:00:00Z,26.5545,-82.1715,1.81,6.41,1111122 
SCCF RECON,ioos:station:SCCF:51:1,2011-07-07T01:00:00Z,26.5545,-82.1715,1.732,6.39,1111122 
SCCF RECON,ioos:station:SCCF:51:1,2011-07-07T02:00:00Z,26.5545,-82.1715,1.655,6.44,1111122 
SCCF RECON,ioos:station:SCCF:51:1,2011-07-07T03:00:00Z,26.5545,-82.1715,1.609,6.48,1111122 
SCCF RECON,ioos:station:SCCF:51:1,2011-07-07T04:00:00Z,26.5545,-82.1715,1.6,6.41,1111122 
SCCF RECON,ioos:station:SCCF:51:1,2011-07-07T05:00:00Z,26.5545,-82.1715,1.647,6.03,1111122 
SCCF RECON,ioos:station:SCCF:51:1,2011-07-07T06:00:00Z,26.5545,-82.1715,1.72,5.91,1111122 
SCCF RECON,ioos:station:SCCF:51:1,2011-07-07T07:00:00Z,26.5545,-82.1715,1.82,5.3,1111122 
SCCF RECON,ioos:station:SCCF:51:1,2011-07-07T08:00:00Z,26.5545,-82.1715,1.939,5.24,1111122 
SCCF RECON,ioos:station:SCCF:51:1,2011-07-07T09:00:00Z,26.5545,-82.1715,2.011,4.93,1111122 
SCCF RECON,ioos:station:SCCF:51:1,2011-07-07T10:00:00Z,26.5545,-82.1715,2.051,5.06,1111122 
SCCF RECON,ioos:station:SCCF:51:1,2011-07-07T11:00:00Z,26.5545,-82.1715,2.07,5.06,1111122 
SCCF RECON,ioos:station:SCCF:51:1,2011-07-07T12:00:00Z,26.5545,-82.1715,2.02,5.0,1111122 
SCCF RECON,ioos:station:SCCF:51:1,2011-07-07T13:00:00Z,26.5545,-82.1715,1.94,5.24,1111122 
SCCF RECON,ioos:station:SCCF:51:1,2011-07-07T14:00:00Z,26.5545,-82.1715,1.847,5.47,1111122 
SCCF RECON,ioos:station:SCCF:51:1,2011-07-07T15:00:00Z,26.5545,-82.1715,1.742,5.6,1111122 
SCCF RECON,ioos:station:SCCF:51:1,2011-07-07T16:00:00Z,26.5545,-82.1715,1.679,5.41,1111122 
SCCF RECON,ioos:station:SCCF:51:1,2011-07-07T17:00:00Z,26.5545,-82.1715,1.647,5.36,1111122 
SCCF RECON,ioos:station:SCCF:51:1,2011-07-07T18:00:00Z,26.5545,-82.1715,1.681,5.89,1111122 
SCCF RECON,ioos:station:SCCF:51:1,2011-07-07T19:00:00Z,26.5545,-82.1715,1.75,6.06,1111122 
SCCF RECON,ioos:station:SCCF:51:1,2011-07-07T20:00:00Z,26.5545,-82.1715,1.842,6.21,1111122 
SCCF RECON,ioos:station:SCCF:51:1,2011-07-07T21:00:00Z,26.5545,-82.1715,1.912,5.56,1111122 
SCCF RECON,ioos:station:SCCF:51:1,2011-07-07T22:00:00Z,26.5545,-82.1715,1.982,5.67,1111122 
SCCF RECON,ioos:station:SCCF:51:1,2011-07-07T23:00:00Z,26.5545,-82.1715,2.048,5.76,1111122 
SCCF RECON,ioos:station:SCCF:51:1,2011-07-08T00:00:00Z,26.5545,-82.1715,2.026,6.02,1111122 
SCCF RECON,ioos:station:SCCF:51:1,2011-07-08T01:00:00Z,26.5545,-82.1715,1.981,5.83,1111122 
SCCF RECON,ioos:station:SCCF:51:1,2011-07-08T02:00:00Z,26.5545,-82.1715,1.926,5.87,1111122 
SCCF RECON,ioos:station:SCCF:51:1,2011-07-08T03:00:00Z,26.5545,-82.1715,1.882,6.0,1111122 
SCCF RECON,ioos:station:SCCF:51:1,2011-07-08T04:00:00Z,26.5545,-82.1715,1.842,5.92,1111122 
SCCF RECON,ioos:station:SCCF:51:1,2011-07-08T05:00:00Z,26.5545,-82.1715,1.82,5.48,1111122 
SCCF RECON,ioos:station:SCCF:51:1,2011-07-08T06:00:00Z,26.5545,-82.1715,1.835,5.56,1111122 
SCCF RECON,ioos:station:SCCF:51:1,2011-07-08T07:00:00Z,26.5545,-82.1715,1.926,5.7,1111122 
SCCF RECON,ioos:station:SCCF:51:1,2011-07-08T08:00:00Z,26.5545,-82.1715,2.034,5.69,1111122 
SCCF RECON,ioos:station:SCCF:51:1,2011-07-08T09:00:00Z,26.5545,-82.1715,2.137,5.51,1111122 
SCCF RECON,ioos:station:SCCF:51:1,2011-07-08T10:00:00Z,26.5545,-82.1715,2.199,5.52,1111122 
SCCF RECON,ioos:station:SCCF:51:1,2011-07-08T11:00:00Z,26.5545,-82.1715,2.209,5.54,1111122 
SCCF RECON,ioos:station:SCCF:51:1,2011-07-08T12:00:00Z,26.5545,-82.1715,2.155,5.57,1111122 
SCCF RECON,ioos:station:SCCF:51:1,2011-07-08T13:00:00Z,26.5545,-82.1715,2.099,5.55,1111122 
SCCF RECON,ioos:station:SCCF:51:1,2011-07-08T14:00:00Z,26.5545,-82.1715,2.026,5.63,1111122 
SCCF RECON,ioos:station:SCCF:51:1,2011-07-08T15:00:00Z,26.5545,-82.1715,1.94,5.75,1111122 
SCCF RECON,ioos:station:SCCF:51:1,2011-07-08T16:00:00Z,26.5545,-82.1715,1.853,5.74,1111122 
SCCF RECON,ioos:station:SCCF:51:1,2011-07-08T17:00:00Z,26.5545,-82.1715,1.758,6.05,1111122 
SCCF RECON,ioos:station:SCCF:51:1,2011-07-08T18:00:00Z,26.5545,-82.1715,1.676,6.11,1111122 
SCCF RECON,ioos:station:SCCF:51:1,2011-07-08T19:00:00Z,26.5545,-82.1715,1.645,6.36,1111122 
SCCF RECON,ioos:station:SCCF:51:1,2011-07-08T20:00:00Z,26.5545,-82.1715,1.667,6.68,1111122 
SCCF RECON,ioos:station:SCCF:51:1,2011-07-08T21:00:00Z,26.5545,-82.1715,1.744,7.02,1111122 
SCCF RECON,ioos:station:SCCF:51:1,2011-07-08T22:00:00Z,26.5545,-82.1715,1.818,7.13,1111122 
SCCF RECON,ioos:station:SCCF:51:1,2011-07-08T23:00:00Z,26.5545,-82.1715,1.874,6.69,1111122 
SCCF RECON,ioos:station:SCCF:51:1,2011-07-09T00:00:00Z,26.5545,-82.1715,1.922,6.96,1111122 
SCCF RECON,ioos:station:SCCF:51:1,2011-07-09T01:00:00Z,26.5545,-82.1715,1.914,6.73,1111122 
SCCF RECON,ioos:station:SCCF:51:1,2011-07-09T02:00:00Z,26.5545,-82.1715,1.85,6.84,1111122 
SCCF RECON,ioos:station:SCCF:51:1,2011-07-09T03:00:00Z,26.5545,-82.1715,1.851,6.77,1111122 
SCCF RECON,ioos:station:SCCF:51:1,2011-07-09T04:00:00Z,26.5545,-82.1715,1.794,6.77,1111122 
SCCF RECON,ioos:station:SCCF:51:1,2011-07-09T05:00:00Z,26.5545,-82.1715,1.77,6.63,1111122 
SCCF RECON,ioos:station:SCCF:51:1,2011-07-09T06:00:00Z,26.5545,-82.1715,1.792,6.63,1111122 
SCCF RECON,ioos:station:SCCF:51:1,2011-07-09T07:00:00Z,26.5545,-82.1715,1.812,6.6,1111122 
SCCF RECON,ioos:station:SCCF:51:1,2011-07-09T08:00:00Z,26.5545,-82.1715,1.849,6.43,1111122 
SCCF RECON,ioos:station:SCCF:51:1,2011-07-09T09:00:00Z,26.5545,-82.1715,1.938,5.75,1111122 
SCCF RECON,ioos:station:SCCF:51:1,2011-07-09T10:00:00Z,26.5545,-82.1715,2.009,5.63,1111122 
SCCF RECON,ioos:station:SCCF:51:1,2011-07-09T11:00:00Z,26.5545,-82.1715,2.077,5.52,1111122 
SCCF RECON,ioos:station:SCCF:51:1,2011-07-09T12:00:00Z,26.5545,-82.1715,2.091,5.71,1111122 
SCCF RECON,ioos:station:SCCF:51:1,2011-07-09T13:00:00Z,26.5545,-82.1715,2.057,5.65,1111122 
SCCF RECON,ioos:station:SCCF:51:1,2011-07-09T14:00:00Z,26.5545,-82.1715,1.987,5.94,1111122 
SCCF RECON,ioos:station:SCCF:51:1,2011-07-09T15:00:00Z,26.5545,-82.1715,1.899,6.08,1111122 
SCCF RECON,ioos:station:SCCF:51:1,2011-07-09T16:00:00Z,26.5545,-82.1715,1.793,6.67,1111122 
SCCF RECON,ioos:station:SCCF:51:1,2011-07-09T17:00:00Z,26.5545,-82.1715,1.684,6.77,1111122 
SCCF RECON,ioos:station:SCCF:51:1,2011-07-09T18:00:00Z,26.5545,-82.1715,1.584,7.52,1111122 
SCCF RECON,ioos:station:SCCF:51:1,2011-07-09T19:00:00Z,26.5545,-82.1715,1.486,7.44,1111122 
SCCF RECON,ioos:station:SCCF:51:1,2011-07-09T20:00:00Z,26.5545,-82.1715,1.432,7.76,1111122 
SCCF RECON,ioos:station:SCCF:51:1,2011-07-09T21:00:00Z,26.5545,-82.1715,1.448,8.07,1111122 
SCCF RECON,ioos:station:SCCF:51:1,2011-07-09T22:00:00Z,26.5545,-82.1715,1.518,8.42,1111122 
SCCF RECON,ioos:station:SCCF:51:1,2011-07-09T23:00:00Z,26.5545,-82.1715,1.603,8.22,1111122 
SCCF RECON,ioos:station:SCCF:51:1,2011-07-10T00:00:00Z,26.5545,-82.1715,1.699,7.51,1111122 
SCCF RECON,ioos:station:SCCF:51:1,2011-07-10T01:00:00Z,26.5545,-82.1715,1.776,7.03,1111122 
SCCF RECON,ioos:station:SCCF:51:1,2011-07-10T02:00:00Z,26.5545,-82.1715,1.829,7.08,1111122 
SCCF RECON,ioos:station:SCCF:51:1,2011-07-10T03:00:00Z,26.5545,-82.1715,1.837,7.14,1111122 
SCCF RECON,ioos:station:SCCF:51:1,2011-07-10T04:00:00Z,26.5545,-82.1715,1.819,7.95,1111122 
SCCF RECON,ioos:station:SCCF:51:1,2011-07-10T05:00:00Z,26.5545,-82.1715,1.774,7.76,1111122 
SCCF RECON,ioos:station:SCCF:51:1,2011-07-10T06:00:00Z,26.5545,-82.1715,1.74,7.94,1111122 
SCCF RECON,ioos:station:SCCF:51:1,2011-07-10T07:00:00Z,26.5545,-82.1715,1.759,7.9,1111122 
SCCF RECON,ioos:station:SCCF:51:1,2011-07-10T08:00:00Z,26.5545,-82.1715,1.8,6.89,1111122 
SCCF RECON,ioos:station:SCCF:51:1,2011-07-10T09:00:00Z,26.5545,-82.1715,1.86,6.66,1111122 
SCCF RECON,ioos:station:SCCF:51:1,2011-07-10T10:00:00Z,26.5545,-82.1715,1.93,5.94,1111122 
SCCF RECON,ioos:station:SCCF:51:1,2011-07-10T11:00:00Z,26.5545,-82.1715,2.007,6.23,1111122 
SCCF RECON,ioos:station:SCCF:51:1,2011-07-10T12:00:00Z,26.5545,-82.1715,2.064,6.15,1111122 
SCCF RECON,ioos:station:SCCF:51:1,2011-07-10T13:00:00Z,26.5545,-82.1715,2.089,5.82,1111122 
SCCF RECON,ioos:station:SCCF:51:1,2011-07-10T14:00:00Z,26.5545,-82.1715,2.069,6.09,1111122 
SCCF RECON,ioos:station:SCCF:51:1,2011-07-10T15:00:00Z,26.5545,-82.1715,2.005,6.33,1111122 
SCCF RECON,ioos:station:SCCF:51:1,2011-07-10T16:00:00Z,26.5545,-82.1715,1.911,7.27,1111122 
SCCF RECON,ioos:station:SCCF:51:1,2011-07-10T17:00:00Z,26.5545,-82.1715,1.781,7.67,1111122 
SCCF RECON,ioos:station:SCCF:51:1,2011-07-10T18:00:00Z,26.5545,-82.1715,1.65,7.73,1111122 
SCCF RECON,ioos:station:SCCF:51:1,2011-07-10T19:00:00Z,26.5545,-82.1715,1.523,8.09,1111122 
SCCF RECON,ioos:station:SCCF:51:1,2011-07-10T20:00:00Z,26.5545,-82.1715,1.418,8.68,1111122 
SCCF RECON,ioos:station:SCCF:51:1,2011-07-10T21:00:00Z,26.5545,-82.1715,1.367,8.58,1111122 
SCCF RECON,ioos:station:SCCF:51:1,2011-07-10T22:00:00Z,26.5545,-82.1715,1.391,8.6,1111122 
SCCF RECON,ioos:station:SCCF:51:1,2011-07-10T23:00:00Z,26.5545,-82.1715,1.48,8.35,1111122 
SCCF RECON,ioos:station:SCCF:51:1,2011-07-11T00:00:00Z,26.5545,-82.1715,1.58,7.9,1111122 
SCCF RECON,ioos:station:SCCF:51:1,2011-07-11T01:00:00Z,26.5545,-82.1715,1.695,6.99,1111122 
SCCF RECON,ioos:station:SCCF:51:1,2011-07-11T02:00:00Z,26.5545,-82.1715,1.78,6.97,1111122 
SCCF RECON,ioos:station:SCCF:51:1,2011-07-11T03:00:00Z,26.5545,-82.1715,1.837,6.37,1111122 
SCCF RECON,ioos:station:SCCF:51:1,2011-07-11T04:00:00Z,26.5545,-82.1715,1.861,6.6,1111122 
SCCF RECON,ioos:station:SCCF:51:1,2011-07-11T05:00:00Z,26.5545,-82.1715,1.821,6.76,1111122 
SCCF RECON,ioos:station:SCCF:51:1,2011-07-11T06:00:00Z,26.5545,-82.1715,1.784,6.89,1111122 
SCCF RECON,ioos:station:SCCF:51:1,2011-07-11T07:00:00Z,26.5545,-82.1715,1.739,6.66,1111122 
SCCF RECON,ioos:station:SCCF:51:1,2011-07-11T08:00:00Z,26.5545,-82.1715,1.731,6.85,1111122 
SCCF RECON,ioos:station:SCCF:51:1,2011-07-11T09:00:00Z,26.5545,-82.1715,1.772,6.47,1111122 
SCCF RECON,ioos:station:SCCF:51:1,2011-07-11T10:00:00Z,26.5545,-82.1715,1.85,6.1,1111122 
SCCF RECON,ioos:station:SCCF:51:1,2011-07-11T11:00:00Z,26.5545,-82.1715,1.96,5.5,1111122 
SCCF RECON,ioos:station:SCCF:51:1,2011-07-11T12:00:00Z,26.5545,-82.1715,2.041,5.49,1111122 
SCCF RECON,ioos:station:SCCF:51:1,2011-07-11T13:00:00Z,26.5545,-82.1715,2.1,5.49,1111122 
SCCF RECON,ioos:station:SCCF:51:1,2011-07-11T14:00:00Z,26.5545,-82.1715,2.102,5.51,1111122 
SCCF RECON,ioos:station:SCCF:51:1,2011-07-11T15:00:00Z,26.5545,-82.1715,2.071,5.82,1111122 
SCCF RECON,ioos:station:SCCF:51:1,2011-07-11T16:00:00Z,26.5545,-82.1715,1.997,6.12,1111122 
SCCF RECON,ioos:station:SCCF:51:1,2011-07-11T17:00:00Z,26.5545,-82.1715,1.891,6.69,1111122 
SCCF RECON,ioos:station:SCCF:51:1,2011-07-11T18:00:00Z,26.5545,-82.1715,1.76,7.27,1111122 
SCCF RECON,ioos:station:SCCF:51:1,2011-07-11T19:00:00Z,26.5545,-82.1715,1.626,7.81,1111122 